Regional Weather Roundup
Issued by NWS

Home | Current Version | Previous Version | Graphics & Text | Print | Product List | Glossary On
Versions: 1 2 3 4 5 6 7 8 9 10 11 12 13 14 15 16 17 18 19 20 21 22 23 24 25 26 27 28 29 30 31 32 33 34 35 36 37 38 39 40 41 42 43 44 45 46 47 48 49 50
000
ASUS43 KBIS 221702
RWRND

NORTH DAKOTA REGIONAL WEATHER ROUNDUP
NATIONAL WEATHER SERVICE BISMARCK ND
1200 PM CDT TUE AUG 22 2017

NOTE: "FAIR" INDICATES FEW OR NO CLOUDS BELOW 12,000 FEET WITH NO
SIGNIFICANT WEATHER AND/OR OBSTRUCTIONS TO VISIBILITY.


NDZ001>003-009>011-017-221800-
NORTHWEST NORTH DAKOTA

CITY           SKY/WX    TMP DP  RH WIND       PRES   REMARKS
WILLISTON      SUNNY     73  38  27 S9        30.20F
MINOT          SUNNY     74  38  27 W12       30.17S
MINOT AFB      SUNNY     73  37  26 NW9G21    30.15F
$$

NDZ018>021-031>035-040>046-221800-
SOUTHWEST NORTH DAKOTA

CITY           SKY/WX    TMP DP  RH WIND       PRES   REMARKS
BISMARCK       SUNNY     73  45  36 NW7       30.20F
DICKINSON      SUNNY     71  39  31 SW5       30.20F
GARRISON         N/A     71  38  29 NW9G23    30.19S
HETTINGER ARPT SUNNY     73  38  27 CALM      30.23F
$$

NDZ004>008-012>016-024-026-027-054-221800-
NORTHEAST NORTH DAKOTA

CITY           SKY/WX    TMP DP  RH WIND       PRES   REMARKS
GRAND FORKS    MOSUNNY   74  45  35 NW22      30.06R
GRND FRKS AFB  SUNNY     73  43  33 NW12G22   30.08R
DEVILS LAKE    SUNNY     70  42  36 NW18G28   30.13S
$$

NDZ022-023-025-028>030-036>039-047>053-221800-
SOUTHEAST NORTH DAKOTA

CITY           SKY/WX    TMP DP  RH WIND       PRES   REMARKS
FARGO          SUNNY     73  46  38 NW18G26   30.09S
JAMESTOWN      SUNNY     69  45  41 NW16G24   30.15S
$$





USA.gov is the U.S. government's official web portal to all federal, state and local government web resources and services.